This demonstration page uses our WeatherBlox Daily Observations layout. Learn more.

Left ArrowRight Arrow

Hourly Observations for September 5, 2016

Temp ( °F °C ) Dew Point ( °F °C ) Humidity (%) Winds ( mph kmh ) Pressure ( in mb ) Visibility ( mi km ) Precip ( " mm )
12:15 am 00:15 Clear 63 17 61 16 94 94 N N/A 30.27 1025 10 16 N/A
12:35 am 00:35 Clear 61 16 61 16 100 100 N N/A 30.27 1025 10 16 N/A
12:55 am 00:55 Clear 61 16 61 16 100 100 N N/A 30.27 1025 10 16 N/A
1:15 am 01:15 Clear 61 16 61 16 100 100 N N/A 30.24 1024 10 16 N/A
1:35 am 01:35 Clear 61 16 61 16 100 100 W 5 7 30.24 1024 10 16 N/A
1:55 am 01:55 Clear 61 16 61 16 100 100 N N/A 30.24 1024 10 16 N/A
2:15 am 02:15 Clear 61 16 61 16 100 100 N N/A 30.24 1024 10 16 N/A
2:35 am 02:35 Clear 61 16 61 16 100 100 N N/A 30.24 1024 10 16 N/A
2:55 am 02:55 Clear 61 16 61 16 100 100 N N/A 30.24 1024 10 16 N/A
3:15 am 03:15 Clear 61 16 61 16 100 100 N N/A 30.24 1024 10 16 N/A
3:35 am 03:35 Clear 61 16 59 15 94 94 N N/A 30.24 1024 10 16 N/A
3:55 am 03:55 Clear 59 15 59 15 100 100 N N/A 30.24 1024 10 16 N/A
4:15 am 04:15 Clear 59 15 59 15 100 100 N N/A 30.24 1024 10 16 N/A
4:35 am 04:35 Clear 59 15 59 15 100 100 SW 6 9 30.24 1024 10 16 N/A
4:55 am 04:55 Clear 59 15 59 15 100 100 N N/A 30.24 1024 10 16 N/A
5:15 am 05:15 Clear 59 15 59 15 100 100 N N/A 30.24 1024 10 16 N/A
5:35 am 05:35 Clear 57 14 57 14 100 100 WNW 5 7 30.27 1025 10 16 N/A
5:55 am 05:55 Clear 57 14 57 14 100 100 N N/A 30.27 1025 10 16 N/A
6:15 am 06:15 Clear 59 15 59 15 100 100 N N/A 30.27 1025 10 16 N/A
6:35 am 06:35 Clear 57 14 57 14 100 100 N N/A 30.27 1025 10 16 N/A
6:55 am 06:55 Sunny 57 14 57 14 100 100 N N/A 30.27 1025 10 16 N/A
7:15 am 07:15 Sunny 55 13 55 13 100 100 NW 3 6 30.27 1025 10 16 N/A
7:35 am 07:35 Sunny 59 15 59 15 100 100 N N/A 30.27 1025 10 16 N/A
7:55 am 07:55 Sunny 61 16 61 16 100 100 N N/A 30.27 1025 10 16 N/A
8:15 am 08:15 Sunny 63 17 61 16 94 94 N N/A 30.27 1025 10 16 N/A
8:35 am 08:35 Sunny 66 19 61 16 83 83 N N/A 30.27 1025 10 16 N/A
8:55 am 08:55 Sunny 70 21 61 16 73 73 N N/A 30.27 1025 10 16 N/A
9:15 am 09:15 Sunny 72 22 61 16 69 69 NNW 5 7 30.27 1025 10 16 N/A
9:35 am 09:35 Sunny 72 22 61 16 69 69 NNW 6 9 30.27 1025 10 16 N/A
9:55 am 09:55 Sunny 73 23 61 16 65 65 NW 5 7 30.27 1025 10 16 N/A
10:15 am 10:15 Sunny 77 25 61 16 57 57 NNE 5 7 30.27 1025 10 16 N/A
10:35 am 10:35 Sunny 77 25 61 16 57 57 NNE 5 7 30.27 1025 10 16 N/A
10:55 am 10:55 Sunny 79 26 61 16 54 54 N 9 15 30.27 1025 10 16 N/A
11:15 am 11:15 Sunny 79 26 61 16 54 54 N 8 13 30.27 1025 10 16 N/A
11:35 am 11:35 Sunny 81 27 61 16 51 51 N 8 13 30.27 1025 10 16 N/A
11:55 am 11:55 Sunny 81 27 61 16 51 51 N 13 20 30.27 1025 10 16 N/A
12:15 pm 12:15 Sunny 82 28 59 15 45 45 N 7 11 30.24 1024 10 16 N/A
12:35 pm 12:35 Sunny 81 27 59 15 48 48 N 7 11 30.24 1024 10 16 N/A
12:55 pm 12:55 Sunny 82 28 61 16 48 48 WNW 8 13 30.24 1024 10 16 N/A
1:15 pm 13:15 Sunny 82 28 61 16 48 48 N 10 17 30.21 1023 10 16 N/A
1:35 pm 13:35 Sunny 82 28 61 16 48 48 NNE 8 13 30.21 1023 10 16 N/A
1:55 pm 13:55 Sunny 82 28 61 16 48 48 WNW 9 15 30.21 1023 10 16 N/A
2:15 pm 14:15 Sunny 86 30 61 16 43 43 NW 9 15 30.18 1022 10 16 N/A
2:35 pm 14:35 Sunny 84 29 61 16 45 45 NNW 8 13 30.18 1022 10 16 N/A
2:55 pm 14:55 Sunny 86 30 61 16 43 43 NW 12 19 30.18 1022 10 16 N/A
3:15 pm 15:15 Sunny 86 30 61 16 43 43 NNW 3 6 30.15 1021 10 16 N/A
3:35 pm 15:35 Sunny 86 30 61 16 43 43 WNW 8 13 30.15 1021 10 16 N/A
3:55 pm 15:55 Sunny 86 30 61 16 43 43 WNW 9 15 30.15 1021 10 16 N/A
4:15 pm 16:15 Sunny 86 30 59 15 40 40 N 7 11 30.15 1021 10 16 N/A
4:35 pm 16:35 Sunny 86 30 59 15 40 40 NNW 9 15 30.12 1020 10 16 N/A
4:55 pm 16:55 Sunny 86 30 59 15 40 40 WNW 8 13 30.12 1020 10 16 N/A
5:15 pm 17:15 Sunny 86 30 61 16 43 43 WNW 9 15 30.12 1020 10 16 N/A
5:35 pm 17:35 Sunny 86 30 61 16 43 43 WNW 7 11 30.12 1020 10 16 N/A
5:55 pm 17:55 Sunny 86 30 61 16 43 43 W 3 6 30.12 1020 10 16 N/A
6:15 pm 18:15 Sunny 86 30 61 16 43 43 W 7 11 30.12 1020 10 16 N/A
6:35 pm 18:35 Sunny 86 30 61 16 43 43 WSW 6 9 30.12 1020 10 16 N/A
6:55 pm 18:55 Sunny 86 30 61 16 43 43 SW 3 6 30.12 1020 10 16 N/A
7:15 pm 19:15 Sunny 82 28 63 17 51 51 SSW 7 11 30.12 1020 10 16 N/A
7:35 pm 19:35 Clear 81 27 63 17 54 54 SSW 7 11 30.12 1020 10 16 N/A
7:55 pm 19:55 Clear 81 27 63 17 54 54 SW 6 9 30.12 1020 10 16 N/A
8:15 pm 20:15 Clear 77 25 64 18 65 65 WSW 5 7 30.12 1020 10 16 N/A
8:35 pm 20:35 Clear 73 23 64 18 74 74 W 3 6 30.12 1020 10 16 N/A
8:55 pm 20:55 Clear 73 23 64 18 74 74 W 5 7 30.12 1020 10 16 N/A
9:15 pm 21:15 Clear 72 22 66 19 83 83 W 6 9 30.12 1020 10 16 N/A
9:35 pm 21:35 Clear 70 21 64 18 83 83 WSW 3 6 30.12 1020 10 16 N/A
9:55 pm 21:55 Clear 72 22 64 18 78 78 W 5 7 30.12 1020 10 16 N/A
10:15 pm 22:15 Clear 72 22 64 18 78 78 W 5 7 30.12 1020 10 16 N/A
10:35 pm 22:35 Clear 72 22 64 18 78 78 W 3 6 30.12 1020 10 16 N/A
10:55 pm 22:55 Clear 70 21 63 17 78 78 W 6 9 30.12 1020 10 16 N/A
11:15 pm 23:15 Clear 70 21 63 17 78 78 W 3 6 30.12 1020 10 16 N/A
11:35 pm 23:35 Clear 72 22 63 17 73 73 W 3 6 30.12 1020 10 16 N/A
11:55 pm 23:55 Clear 72 22 63 17 73 73 N 5 7 30.12 1020 10 16 N/A

Powered by AerisWeather